This demonstration page uses our WeatherBlox Daily Observations layout. Learn more.

Left ArrowRight Arrow

36.19886, -115.1175

Hourly Observations for February 12, 2021

Temp ( °F °C ) Dew Point ( °F °C ) Humidity (%) Winds ( mph kmh ) Pressure ( in mb ) Visibility ( mi km ) Precip ( " mm )
12:53 am 00:53 Clear 63 17.2 27 -2.8 26 26 SSW 14 22 29.70 1006 10 16 N/A
1:53 am 01:53 Clear 62 16.7 30 -1.1 30 30 S 18 30 29.67 1005 10 16 N/A
2:53 am 02:53 Clear 60 15.6 30 -1.1 32 32 S 12 19 29.62 1003 10 16 N/A
3:53 am 03:53 Clear 58 14.4 31 -0.6 36 36 ESE 7 11 29.63 1003 10 16 N/A
4:53 am 04:53 Clear 56 13.3 30 -1.1 37 37 W 8 13 29.63 1003 10 16 N/A
5:53 am 05:53 Clear 54 12.2 31 -0.6 42 42 WNW 9 15 29.65 1004 10 16 N/A
6:53 am 06:53 Mostly Sunny 54 12.2 31 -0.6 42 42 WNW 6 9 29.69 1005 10 16 N/A
7:53 am 07:53 Mostly Cloudy 57 13.9 30 -1.1 36 36 WNW 13 20 29.72 1007 10 16 N/A
8:53 am 08:53 Cloudy with Light Rain 55 12.8 42 5.6 62 62 NW 18 30 29.76 1008 10 16 0.00 0.00
9:53 am 09:53 Partly Cloudy 59 15 43 6.1 56 56 WNW 12 19 29.78 1008 10 16 0.02 0.51
10:53 am 10:53 Sunny 62 16.7 41 5 46 46 NNW 15 24 29.77 1008 10 16 N/A
11:53 am 11:53 Sunny 65 18.3 38 3.3 37 37 NNW 20 31 29.77 1008 10 16 N/A
12:53 pm 12:53 Sunny 67 19.4 36 2.2 32 32 NNW 12 19 29.76 1008 10 16 N/A
1:53 pm 13:53 Sunny 68 20 34 1.1 28 28 WNW 8 13 29.74 1007 10 16 N/A
2:53 pm 14:53 Sunny 70 21.1 34 1.1 27 27 N N/A 29.74 1007 10 16 N/A
3:53 pm 15:53 Sunny 69 20.6 34 1.1 27 27 ESE 7 11 29.74 1007 10 16 N/A
4:53 pm 16:53 Sunny 70 21.1 32 undefined 25 25 N 6 9 29.76 1008 10 16 N/A
5:53 pm 17:53 Clear 66 18.9 34 1.1 30 30 S 3 6 29.77 1008 10 16 N/A
6:53 pm 18:53 Clear 64 17.8 36 2.2 35 35 SW 5 7 29.78 1008 10 16 N/A
7:53 pm 19:53 Clear 61 16.1 37 2.8 41 41 WNW 3 6 29.80 1009 10 16 N/A
8:53 pm 20:53 Clear 59 15 37 2.8 44 44 W 5 7 29.81 1010 10 16 N/A
9:53 pm 21:53 Clear 57 13.9 36 2.2 45 45 N N/A 29.81 1010 10 16 N/A
10:53 pm 22:53 Clear 57 13.9 34 1.1 42 42 SW 3 6 29.80 1009 10 16 N/A
11:53 pm 23:53 Clear 57 13.9 34 1.1 42 42 N N/A 29.80 1009 10 16 N/A

Powered by AerisWeather